TimePDT,TemperatureF,Dew PointF,Humidity,Sea Level PressureIn,VisibilityMPH,Wind Direction,Wind SpeedMPH,Gust SpeedMPH,PrecipitationIn,Events,Conditions,WindDirDegrees,DateUTC
12:00 AM,30.2,29.7,98,30.16,-9999.0,Calm,Calm,-,N/A,,Unknown,0,2013-03-22 07:00:00
1:00 AM,31.5,30.7,97,30.17,-9999.0,Calm,Calm,-,N/A,,Unknown,0,2013-03-22 08:00:00
2:00 AM,31,30,93,30.17,,NNE,1.2,,,,,20,2013-03-22 09:00:00
2:00 AM,30.9,29.8,96,30.17,-9999.0,NNE,1.2,-,N/A,,Unknown,20,2013-03-22 09:00:00
3:00 AM,30.0,29.3,97,30.18,-9999.0,NE,3.5,-,N/A,,Unknown,40,2013-03-22 10:00:00
4:00 AM,29.1,28.6,98,30.19,-9999.0,NNE,3.5,-,N/A,,Unknown,30,2013-03-22 11:00:00
5:00 AM,28,28,100,30.20,,NE,2.3,,,,,40,2013-03-22 12:00:00
5:00 AM,28.4,28.0,99,30.20,-9999.0,NE,2.3,-,N/A,,Unknown,40,2013-03-22 12:00:00
6:00 AM,29.1,28.6,98,30.22,-9999.0,NNE,2.3,-,N/A,,Unknown,30,2013-03-22 13:00:00
7:00 AM,29.8,28.9,96,30.23,-9999.0,NNW,2.3,-,N/A,,Unknown,340,2013-03-22 14:00:00
8:00 AM,32,28,81,30.25,,North,2.3,,,,,350,2013-03-22 15:00:00
8:00 AM,31.6,28.4,88,30.25,-9999.0,North,2.3,-,N/A,,Unknown,350,2013-03-22 15:00:00
9:00 AM,34.3,28.6,79,30.25,-9999.0,NNW,3.5,-,N/A,,Unknown,330,2013-03-22 16:00:00
10:00 AM,38.1,25.5,61,30.26,-9999.0,WNW,5.8,-,N/A,,Unknown,300,2013-03-22 17:00:00
11:00 AM,42,23,34,30.27,,NW,3.5,,,,,310,2013-03-22 18:00:00
11:00 AM,41.7,23.4,48,30.27,-9999.0,NW,3.5,-,N/A,,Unknown,310,2013-03-22 18:00:00
12:00 PM,45.1,22.3,40,30.26,-9999.0,South,1.2,-,N/A,,Unknown,170,2013-03-22 19:00:00
1:00 PM,45.0,18.3,35,30.26,-9999.0,ENE,2.3,-,N/A,,Unknown,70,2013-03-22 20:00:00
2:00 PM,48,16,16,30.26,,South,5.8,,,,,170,2013-03-22 21:00:00
2:00 PM,48.2,16.3,28,30.26,-9999.0,South,5.8,-,N/A,,Unknown,170,2013-03-22 21:00:00
3:00 PM,48.9,21.4,34,30.26,-9999.0,South,6.9,-,N/A,,Unknown,190,2013-03-22 22:00:00
4:00 PM,46.2,25.5,44,30.27,-9999.0,SSE,6.9,-,N/A,,Unknown,160,2013-03-22 23:00:00
5:00 PM,46,25,31,30.29,,ESE,4.6,,,,,120,2013-03-23 00:00:00
5:00 PM,45.5,25.3,45,30.29,-9999.0,ESE,4.6,-,N/A,,Unknown,120,2013-03-23 00:00:00
6:00 PM,43.2,30.0,60,30.30,-9999.0,East,2.3,-,N/A,,Unknown,100,2013-03-23 01:00:00
7:00 PM,41.4,28.4,60,30.29,-9999.0,SE,4.6,-,N/A,,Unknown,130,2013-03-23 02:00:00
8:00 PM,36,31,76,30.32,,NE,1.2,,,,,50,2013-03-23 03:00:00
8:00 PM,36.1,31.1,82,30.32,-9999.0,NE,1.2,-,N/A,,Unknown,50,2013-03-23 03:00:00
9:00 PM,32.9,30.4,90,30.35,-9999.0,ENE,1.2,-,N/A,,Unknown,60,2013-03-23 04:00:00
10:00 PM,30.9,29.7,95,30.36,-9999.0,SSE,1.2,-,N/A,,Unknown,150,2013-03-23 05:00:00
11:00 PM,31,29,90,30.36,,NNE,3.5,,,,,30,2013-03-23 06:00:00
11:00 PM,30.6,29.1,94,30.36,-9999.0,NNE,3.5,-,N/A,,Unknown,30,2013-03-23 06:00:00